Lincolnton, NC

9:19 PM EDT on May 23, 2017 (GMT -0400)
Lincolnton-Lincoln County Regional

Weather History for KIPJ - December, 2012

Change the Weather History Date:

Friday, December 7, 2012

  Actual Average (KCLT) Record (KCLT)
Temperature  
Mean Temperature 47 °F -  
Max Temperature 50 °F 54 °F 76 °F (1998)
Min Temperature 44 °F 33 °F 12 °F (2010)
Degree Days  
Heating Degree Days 18    
Moisture  
Dew Point 40 °F    
Average Humidity 77    
Maximum Humidity 100    
Minimum Humidity 54    
Precipitation  
Precipitation 0.02 in - - ()
Sea Level Pressure  
Sea Level Pressure 30.10 in    
Wind  
Wind Speed 0 mph (NW)    
Max Wind Speed 4 mph    
Max Gust Speed -    
Visibility 7 miles    
Events Rain    
Averages and records for this station are not official NWS values.
T = Trace of Precipitation, MM = Missing Value Source: NWS Daily Summary

Daily Weather History Graph

Daily Weather History Graph

Search for Another Location

Airport or City:

Trip Planner

Search our weather history database for the weather conditions in past years. The results will help you decide how hot, cold, wet, or windy it might be!

Date:

Astronomy

Dec. 07, 2012 Rise Set
Actual Time 7:20 AM EST 5:11 PM EST
Civil Twilight 6:52 AM EST 5:39 PM EST
Nautical Twilight 6:21 AM EST 6:11 PM EST
Astronomical Twilight 5:50 AM EST 6:42 PM EST
Moon 12:50 AM EST (12/7) 12:57 PM EST (12/7)
Length of Visible Light 10h 46m
Length of Day
9h 50m
Last Quarter, 39% of the Moon is Illuminated
Dec 7
Last Quarter
Dec 13
New
Dec 20
First Quarter
Dec 28
Full
Jan 4
Last Quarter

Hourly Weather History & Observations

Time (EST) Temp. Windchill Dew Point Humidity Pressure Visibility Wind Dir Wind Speed Gust Speed Precip Events Conditions
12:15 AM 46.4 °F - 32.0 °F 57% 30.21 in 10.0 mi Calm Calm - N/A   Overcast
12:35 AM 46.4 °F - 32.0 °F 57% 30.20 in 10.0 mi Calm Calm - N/A   Overcast
12:55 AM 44.6 °F 43.1 °F 32.0 °F 61% 30.19 in 10.0 mi NW 3.5 mph - N/A   Overcast
1:15 AM 44.6 °F - 32.0 °F 61% 30.19 in 10.0 mi Calm Calm - N/A   Overcast
1:35 AM 44.6 °F - 32.0 °F 61% 30.18 in 10.0 mi Calm Calm - N/A   Overcast
1:55 AM 44.6 °F 43.1 °F 32.0 °F 61% 30.18 in 10.0 mi NW 3.5 mph - N/A   Overcast
2:15 AM 44.6 °F - 32.0 °F 61% 30.18 in 10.0 mi Calm Calm - N/A   Overcast
2:35 AM 44.6 °F - 32.0 °F 61% 30.18 in 10.0 mi Calm Calm - N/A   Overcast
2:55 AM 44.6 °F - 32.0 °F 61% 30.17 in 10.0 mi Calm Calm - N/A   Overcast
3:15 AM 44.6 °F - 32.0 °F 61% 30.16 in 10.0 mi Calm Calm - N/A   Overcast
3:35 AM 44.6 °F - 32.0 °F 61% 30.16 in 10.0 mi Calm Calm - N/A   Overcast
3:55 AM 44.6 °F - 32.0 °F 61% 30.16 in 10.0 mi Calm Calm - N/A   Overcast
4:15 AM 44.6 °F - 33.8 °F 66% 30.16 in 10.0 mi Calm Calm - N/A   Overcast
4:35 AM 44.6 °F - 33.8 °F 66% 30.15 in 10.0 mi Calm Calm - N/A   Overcast
4:55 AM 44.6 °F - 33.8 °F 66% 30.15 in 10.0 mi Calm Calm - N/A   Overcast
5:15 AM 44.6 °F - 33.8 °F 66% 30.14 in 10.0 mi Calm Calm - N/A   Overcast
5:35 AM 44.6 °F - 33.8 °F 66% 30.15 in 10.0 mi Calm Calm - N/A   Overcast
5:55 AM 44.6 °F - 33.8 °F 66% 30.14 in 10.0 mi Calm Calm - N/A   Overcast
6:15 AM 44.6 °F - 33.8 °F 66% 30.14 in 10.0 mi Calm Calm - N/A   Overcast
6:35 AM 44.6 °F - 33.8 °F 66% 30.14 in 10.0 mi Calm Calm - N/A   Overcast
6:55 AM 44.6 °F - 33.8 °F 66% 30.15 in 10.0 mi Calm Calm - N/A   Overcast
7:15 AM 44.6 °F - 33.8 °F 66% 30.15 in 10.0 mi Calm Calm - N/A   Overcast
7:35 AM 44.6 °F - 33.8 °F 66% 30.15 in 10.0 mi Calm Calm - N/A   Overcast
7:55 AM 44.6 °F - 33.8 °F 66% 30.15 in 10.0 mi Calm Calm - N/A   Overcast
8:15 AM 46.4 °F - 33.8 °F 62% 30.15 in 10.0 mi Calm Calm - N/A   Overcast
8:35 AM 46.4 °F - 33.8 °F 62% 30.16 in 10.0 mi Calm Calm - N/A   Overcast
8:55 AM 46.4 °F - 33.8 °F 62% 30.16 in 10.0 mi Calm Calm - N/A   Overcast
9:15 AM 46.4 °F - 33.8 °F 62% 30.15 in 10.0 mi Calm Calm - N/A   Overcast
9:35 AM 46.4 °F - 33.8 °F 62% 30.15 in 10.0 mi Calm Calm - N/A   Overcast
9:55 AM 48.2 °F - 33.8 °F 58% 30.15 in 10.0 mi Calm Calm - N/A   Overcast
10:15 AM 48.2 °F - 33.8 °F 58% 30.15 in 10.0 mi Calm Calm - N/A   Overcast
10:35 AM 48.2 °F - 33.8 °F 58% 30.14 in 10.0 mi Calm Calm - N/A   Overcast
10:55 AM 50.0 °F - 33.8 °F 54% 30.14 in 10.0 mi Calm Calm - N/A   Overcast
11:15 AM 50.0 °F - 33.8 °F 54% 30.13 in 10.0 mi Calm Calm - N/A   Overcast
11:35 AM 50.0 °F - 37.4 °F 62% 30.12 in 10.0 mi Calm Calm - N/A   Overcast
11:55 AM 50.0 °F - 37.4 °F 62% 30.11 in 10.0 mi Calm Calm - N/A Rain Light Rain
12:15 PM 50.0 °F - 37.4 °F 62% 30.10 in 5.0 mi Calm Calm - N/A Rain Heavy Rain
12:35 PM 48.2 °F - 41.0 °F 76% 30.09 in 10.0 mi ENE 3.5 mph - N/A   Overcast
12:55 PM 46.4 °F 45.2 °F 42.8 °F 87% 30.08 in 10.0 mi SSW 3.5 mph - N/A   Overcast
1:15 PM 46.4 °F - 44.6 °F 93% 30.07 in 7.0 mi Calm Calm - N/A   Overcast
1:35 PM 48.2 °F - 44.6 °F 87% 30.07 in 7.0 mi Calm Calm - N/A   Overcast
1:55 PM 46.4 °F - 44.6 °F 93% 30.06 in 2.5 mi Calm Calm - 0.01 in Rain Heavy Rain
2:15 PM 46.4 °F - 44.6 °F 93% 30.05 in 3.0 mi Calm Calm - N/A   Light Drizzle
2:35 PM 48.2 °F - 46.4 °F 93% 30.04 in 7.0 mi Calm Calm - 0.01 in   Overcast
2:55 PM 48.2 °F - 46.4 °F 93% 30.04 in 5.0 mi Calm Calm - 0.01 in   Overcast
3:15 PM 50.0 °F - 46.4 °F 87% 30.03 in 5.0 mi NE 3.5 mph - N/A   Overcast
3:35 PM 48.2 °F - 46.4 °F 93% 30.03 in 5.0 mi Calm Calm - N/A   Overcast
3:55 PM 48.2 °F - 46.4 °F 93% 30.03 in 5.0 mi Calm Calm - N/A   Overcast
4:15 PM 48.2 °F - 46.4 °F 93% 30.03 in 4.0 mi Calm Calm - N/A   Overcast
4:35 PM 48.2 °F - 46.4 °F 93% 30.04 in 7.0 mi Calm Calm - N/A   Overcast
4:55 PM 48.2 °F - 46.4 °F 93% 30.04 in 5.0 mi Calm Calm - N/A   Overcast
5:15 PM 48.2 °F - 46.4 °F 93% 30.03 in 5.0 mi SSW 3.5 mph - N/A   Overcast
5:35 PM 48.2 °F - 46.4 °F 93% 30.02 in 5.0 mi Calm Calm - N/A   Overcast
5:55 PM 48.2 °F - 46.4 °F 93% 30.03 in 5.0 mi Calm Calm - N/A   Overcast
6:15 PM 48.2 °F - 46.4 °F 93% 30.03 in 4.0 mi Calm Calm - N/A   Overcast
6:35 PM 48.2 °F - 46.4 °F 93% 30.03 in 5.0 mi Calm Calm - N/A   Overcast
6:55 PM 48.2 °F - 46.4 °F 93% 30.02 in 5.0 mi Calm Calm - N/A   Overcast
7:15 PM 48.2 °F - 46.4 °F 93% 30.03 in 5.0 mi Calm Calm - N/A   Overcast
7:35 PM 48.2 °F - 46.4 °F 93% 30.03 in 5.0 mi Calm Calm - N/A   Overcast
7:55 PM 48.2 °F - 46.4 °F 93% 30.04 in 5.0 mi Calm Calm - N/A   Overcast
8:15 PM 48.2 °F - 46.4 °F 93% 30.04 in 5.0 mi Calm Calm - N/A   Overcast
8:35 PM 48.2 °F - 46.4 °F 93% 30.05 in 2.5 mi Calm Calm - N/A   Overcast
8:55 PM 48.2 °F - 46.4 °F 93% 30.05 in 1.2 mi Calm Calm - N/A   Overcast
9:15 PM 46.4 °F - 46.4 °F 100% 30.04 in 0.8 mi Calm Calm - N/A   Overcast
9:35 PM 46.4 °F - 46.4 °F 100% 30.04 in 1.2 mi Calm Calm - N/A   Overcast
9:55 PM 46.4 °F - 46.4 °F 100% 30.03 in 1.5 mi Calm Calm - N/A   Overcast
10:15 PM 46.4 °F - 46.4 °F 100% 30.03 in 1.2 mi Calm Calm - N/A   Overcast
10:35 PM 46.4 °F - 46.4 °F 100% 30.04 in 1.5 mi Calm Calm - N/A   Overcast
10:55 PM 46.4 °F - 46.4 °F 100% 30.04 in 1.8 mi Calm Calm - N/A   Overcast
11:15 PM 46.4 °F - 46.4 °F 100% 30.04 in 1.8 mi Calm Calm - N/A   Overcast
11:35 PM 46.4 °F - 46.4 °F 100% 30.03 in 1.8 mi Calm Calm - N/A   Overcast
11:55 PM 46.4 °F - 46.4 °F 100% 30.04 in 2.5 mi Calm Calm - N/A   Overcast